一网星座-0153星 (ONEWEB-0153 )

导读

ONEWEB-0153是英国OneWeb低轨宽带星座的组网卫星,于2021年3月25日发射入轨,属于OneWeb第五批次组网卫星。该星重约147.5公斤,配备Ku与Ka波段通信天线,搭载霍尔效应推进器,运行在约1200公里近地轨道,单星通信能力可达约7.5Gbps,主要为全球提供低时延宽带互联网接入服务,覆盖航空、海事、偏远地区联网等场景。

基本信息
目录编号:
48044
目录名称:
ONEWEB-0153
国际标识:
2021-025C
轨道中心:
EARTH
卫星名称:
一网星座-0153星
卫星全名:
一网星座-0153星 (ONEWEB-0153 )
卫星状态:
在轨 (已飞行2000 天)
发射日期:
2021-03-25 UTC
国别 :
英国 (GB)
星等 :
--
该卫星已列入 空间交会检测服务 Space Conjunction Data Service (SCDS) ,当前飞行风险评估等级: 无高风险
轨道信息
数据来源 国际轨道数据 AOE轨道数据
星历时间 2026-09-15T16:40:36+0800
14小时前
查看轨道信息
2026-09-15T22:00:00+0800
8小时前
查看轨道信息
半长轴 7587.905km 7587.913km
偏心率 0.0001813 0.0001505
轨道倾角 87.893° 87.893°
近地点辐角 95.903° 88.860°
升交点赤经 302.284° 302.240°
平近点角 264.230° 239.482°
近地点 1208.392km 1208.634km
远地点 1211.144km 1210.918km
周期 109.633分钟 109.633分钟
每日圈数 13.134694 13.134675
详细信息
平衡模式:
三轴稳定
覆盖范围:
全球
运营商:
一网卫星公司
运营商所在国:
英国
制造商(研发单位):
一网卫星公司
制造商所在国:
英国
使用方式:
暂无
卫星简介
OneWeb卫星网络由648颗重约125公斤的微型卫星组成,运行在1200公里的轨道上。 每颗卫星都能够提供至少每秒8千兆位的吞吐量,以使用其高吞吐量的Ku频段有效载荷为家庭和移动平台提供互联网接入。该卫星仍在工作。
2D轨道图
3D轨道图
轨道高度分析图
轨道倾角分析图
轨道综合分析图
查看轨道综合分析图
与全量物体交会距离演化趋势 订阅飞行安全评估服务
与全量物体交会风险概率演化趋势 订阅飞行安全评估服务